Вернуться в каталог

METEOR 2-8 DEB

АктивенPO
NORAD 36334·DEBRIS·🇷🇺 Russia

Запущен Mar 25, 1982 с Plesetsk Cosmodrome

Loading…

Ближайшие Пролёты (ближайшие 24 часа)

TLE

СвежийSource: Space-Track

Эпоха: Sep 13, 2026, 07:52 UTC

1 36334U 82025U   26256.32799761  .00003085  00000-0  12287-2 0  9999
2 36334  82.5124 108.2643 0014402 182.4084 177.7034 14.28309836654485

Отслеживайте METEOR 2-8 DEB в реальном времени с AllMySat

Download on the App Store